Powrót do katalogu

SL-3 R/B

AktywnyPO
NORAD 7575·ROCKET BODY·🇷🇺 Russia

Wystrzelony Dec 17, 1974 z Plesetsk Cosmodrome

Loading…

Następne Przeloty (najbliższe 24 godziny)

TLE

ŚwieżeSource: Space-Track

Epoka: Sep 14, 2026, 05:23 UTC

1 07575U 74099B   26257.22479965 -.00000096  00000-0 -59515-4 0  9995
2 07575  81.2419 261.6963 0050661  57.6195 302.9865 14.11589710662548

Śledź SL-3 R/B w czasie rzeczywistym z AllMySat

Download on the App Store